Погода в Набережном

Украина / Запорожская область     46°39′29″N   36°13′47″E
темп.,
°C
ветер,
м/с
пор.,
м/с
влажн.,
%
обл.,
%
осадки,
мм/ч
давл.,
гПа
погр.,
м
27 ноября, сб
сб2723:00+7юв81385100 0.0 1015359
02:00+7юв81591100 0.0 1012401
05:00+8юв91791100 0.1 1010472
08:00+8юв71691100 0.6 1009506
11:00+11ю81689100 0.0 1008521
14:00+11ююз61287100 0.0 1007276
17:00+9ююз4991100 0.0 1008136
20:00+9ю4994100 0.0 1009131
28 ноября, вс
вс2823:00+9ююз5109595 0.0 1009148
02:00+9юз3893100 0.0 1009113
05:00+8ююз33934 0.0 100930
08:00+8ю22940 0.0 101016
11:00+11ю348287 0.0 1010167
14:00+11юв2388100 0.0 101099
17:00+9в2297100 0.6 101030
20:00+10ююв51299100 1.9 1009306
29 ноября, пн
пн2923:00+10ююв61498100 0.6 1008370
02:00+10ю71697100 0.6 1007368
05:00+10ю9189592 0.0 1006321
08:00+10ю101895100 0.9 1006420
11:00+11ю11229072 0.7 1002500
14:00+11ю81886100 1.1 1001333
17:00+11ююз8178899 1.1 999343
20:00+11ююз102189100 3.8 998635
30 ноября, вт
вт3023:00+11юз101791100 0.4 998608
02:00+9юз61088100 0.4 999259
05:00+9з6976100 0.0 1002388
08:00+7з37725 0.0 1004261
11:00+9з345320 0.0 1005398
14:00+9ююв2254100 0.0 1003290
17:00+8в5862100 0.0 999243
20:00+6ссв81188100 7.7 996553
1 декабря, ср
ср123:00+2с111796100 7.1 994653
02:00+2ссз111690100 11.9 999872
05:00+3зсз81274100 0.5 1004890
08:00+2зсз7117855 0.5 1008621
11:00+3з79634 0.0 1009719
14:00+4з685530 0.0 1009909
17:00+3зюз4766100 0.0 1009389
20:00+4зюз7118085 0.1 1009664